QPF
0.04 0.06 0.06 0.06 0.06 0.04 0.02 0.02 0.03 0.04 0.04 0.05 0.05 0.03 0.02 0.02 0.02 0.02 0.02 0.03 0.03 0.03 0.03 0.02 0.02 0.02 0.01 0.01 0.01 0.01 0.01 0.02 0.02 0.02 0.02 0.02 0.02 0.02 0.02 0.02 0.01 0.01 0.01
0.02 0.03 0.03 0.03 0.03 0.03 0.02 0.02 0.02 0.03 0.03 0.03 0.03 0.02 0.01 0.01 0.01 0.02 0.02 0.02 0.02 0.02 0.02 0.01 0.01 0.01 0.01 0.01 0.01 0.01 0.01 0.01 0.01 0.01 0.01 0.01 0.01 0.01 0.01 0.01 0.01 0.01 0.01
0.01 0.01 0.01 0.02 0.02 0.02 0.02 0.03 0.03 0.03 0.02 0.02 0.03 0.02 0.02 0.02 0.02 0.02 0.02 0.01 0.01 0.01 0.01 0.02 0.01 0.01 0.01 0.01 0.01 0.01 0.01 0.01 0.01 0.01 0.01 0.01 0.01 0.01 0.01 0.01 0.01 0.01 0.01
0.01 0.01 0.01 0.01 0.01 0.01 0.02 0.03 0.04 0.04 0.03 0.02 0.03 0.04 0.03 0.03 0.02 0.02 0.02 0.02 0.02 0.02 0.02 0.02 0.01 0.01 0.01 0.01 0.01 0.01 0.01 0.01 0.01 0.01 0.01 0.01 0.01 0.01 0.01 0.01 0.01 0.01 0.01
0.01 0.01 0.01 0.02 0.02 0.02 0.02 0.03 0.04 0.05 0.05 0.04 0.04 0.05 0.05 0.04 0.04 0.04 0.04 0.04 0.04 0.03 0.02 0.02 0.01 0.01 0.01 0.01 0.01 0.01 0.02 0.02 0.02 0.02 0.02 0.01 0.01 0.01 0.01 0.01 0.02 0.02 0.02
0.01 0.01 0.01 0.02 0.03 0.04 0.04 0.04 0.04 0.05 0.06 0.07 0.07 0.07 0.06 0.05 0.05 0.05 0.04 0.04 0.04 0.05 0.04 0.04 0.03 0.02 0.02 0.02 0.02 0.02 0.02 0.02 0.02 0.02 0.02 0.02 0.02 0.02 0.02 0.02 0.02 0.02 0.02
0.01 0.01 0.02 0.02 0.03 0.04 0.03 0.03 0.04 0.05 0.06 0.05 0.05 0.06 0.06 0.06 0.05 0.04 0.04 0.03 0.03 0.03 0.03 0.03 0.03 0.03 0.02 0.02 0.02 0.02 0.01 0.01 0.02 0.02 0.03 0.03 0.03 0.03 0.04 0.05 0.04 0.03 0.03
0.02 0.02 0.02 0.02 0.03 0.03 0.03 0.02 0.03 0.04 0.05 0.05 0.04 0.04 0.04 0.04 0.04 0.03 0.03 0.03 0.03 0.02 0.02 0.02 0.02 0.02 0.02 0.02 0.02 0.02 0.01 0.01 0.01 0.01 0.01 0.01 0.02 0.02 0.03 0.05 0.05 0.05 0.05
0.02 0.03 0.02 0.02 0.02 0.03 0.03 0.02 0.02 0.03 0.03 0.04 0.04 0.03 0.02 0.02 0.02 0.02 0.02 0.02 0.03 0.02 0.02 0.02 0.02 0.01 0.01 0.01 0.01 0.01 0.01 0.01 0.01 0.01 0.01 0.01 0.01 0.02 0.03 0.04 0.04 0.05 0.04
0.02 0.02 0.02 0.02 0.02 0.03 0.02 0.02 0.02 0.02 0.03 0.03 0.03 0.03 0.02 0.01 0.01 0.01 0.01 0.01 0.01 0.01 0.01 0.01 0.01 0.01 0.01 0.01 0.01 0.01 0.01 0.01 0.01 0.01 0.01 0.01 0.01 0.01 0.02 0.03 0.05 0.06 0.05
0.02 0.02 0.02 0.03 0.03 0.03 0.02 0.02 0.01 0.01 0.02 0.02 0.02 0.03 0.02 0.01 0.01 0.01 0.02 0.01 0.01 0.01 0.01 0.01 0.01 0.01 0.01 0.01 0.01 0.01 0.01 0.01 0.01 0.01 0.01 0.01 0.01 0.01 0.02 0.02 0.03 0.04 0.04
0.02 0.02 0.03 0.03 0.02 0.01 0.01 0.01 0.01 0.00 0.00 0.01 0.02 0.02 0.01 0.01 0.01 0.01 0.01 0.01 0.01 0.01 0.01 0.01 0.00 0.00 0.00 0.00 0.00 0.00 0.00 0.01 0.01 0.01 0.01 0.01 0.01 0.01 0.02 0.02 0.03 0.03 0.03
0.02 0.02 0.02 0.02 0.01 0.01 0.00 0.00 0.00 0.00 0.00 0.00 0.01 0.01 0.01 0.00 0.01 0.01 0.01 0.01 0.01 0.01 0.01 0.00 0.00 0.00 0.00 0.00 0.00 0.00 0.00 0.00 0.01 0.01 0.01 0.01 0.01 0.02 0.02 0.02 0.02 0.02 0.03
0.01 0.02 0.01 0.01 0.01 0.00 0.00 0.00 0.00 0.00 0.00 0.00 0.00 0.00 0.00 0.00 0.00 0.01 0.01 0.01 0.01 0.01 0.01 0.00 0.00 0.00 0.00 0.00 0.00 0.00 0.00 0.00 0.01 0.01 0.01 0.01 0.01 0.01 0.01 0.01 0.02 0.02 0.02
0.01 0.01 0.01 0.00 0.00 0.00 0.00 0.00 0.00 0.00 0.00 0.00 0.00 0.00 0.00 0.00 0.00 0.01 0.01 0.01 0.01 0.01 0.01 0.00 0.00 0.00 0.00 0.00 0.00 0.00 0.00 0.00 0.01 0.01 0.01 0.01 0.01 0.01 0.01 0.01 0.02 0.02 0.02
0.00 0.00 0.00 0.00 0.00 0.00 0.00 0.00 0.00 0.00 0.00 0.00 0.00 0.00 0.00 0.00 0.01 0.01 0.01 0.01 0.01 0.01 0.01 0.01 0.01 0.00 0.00 0.00 0.00 0.00 0.00 0.00 0.01 0.01 0.01 0.01 0.01 0.01 0.01 0.01 0.01 0.02 0.02
0.00 0.00 0.00 0.00 0.00 0.00 0.00 0.00 0.00 0.00 0.00 0.00 0.00 0.00 0.00 0.01 0.01 0.01 0.01 0.01 0.01 0.01 0.01 0.01 0.00 0.00 0.00 0.00 0.00 0.01 0.01 0.01 0.01 0.01 0.01 0.01 0.01 0.01 0.01 0.01 0.01 0.01 0.01
0.00 0.00 0.00 0.00 0.00 0.00 0.00 0.00 0.00 0.00 0.00 0.00 0.00 0.00 0.00 0.01 0.01 0.01 0.01 0.01 0.01 0.01 0.01 0.01 0.00 0.00 0.01 0.01 0.01 0.01 0.01 0.01 0.01 0.01 0.01 0.01 0.01 0.01 0.01 0.01 0.01 0.01 0.01
0.00 0.00 0.00 0.00 0.00 0.00 0.00 0.00 0.00 0.00 0.00 0.00 0.00 0.00 0.00 0.01 0.01 0.01 0.01 0.01 0.01 0.01 0.01 0.01 0.01 0.01 0.01 0.01 0.01 0.01 0.01 0.01 0.01 0.01 0.01 0.01 0.01 0.02 0.02 0.01 0.01 0.01 0.02
0.00 0.00 0.00 0.00 0.00 0.00 0.00 0.00 0.01 0.01 0.00 0.00 0.00 0.00 0.00 0.00 0.01 0.01 0.01 0.01 0.01 0.01 0.01 0.01 0.01 0.01 0.01 0.01 0.01 0.01 0.01 0.01 0.01 0.01 0.01 0.02 0.02 0.02 0.02 0.02 0.02 0.02 0.02
0.01 0.01 0.01 0.01 0.01 0.01 0.01 0.01 0.01 0.01 0.01 0.00 0.00 0.00 0.01 0.01 0.01 0.00 0.01 0.01 0.01 0.01 0.01 0.01 0.01 0.01 0.01 0.01 0.02 0.02 0.02 0.01 0.01 0.02 0.02 0.02 0.02 0.02 0.02 0.02 0.02 0.02 0.02
0.01 0.01 0.01 0.01 0.01 0.01 0.01 0.01 0.01 0.01 0.01 0.00 0.00 0.00 0.00 0.01 0.01 0.01 0.01 0.01 0.01 0.01 0.01 0.02 0.02 0.02 0.02 0.02 0.02 0.02 0.02 0.02 0.02 0.02 0.02 0.02 0.02 0.03 0.03 0.03 0.03 0.02 0.02
0.00 0.00 0.00 0.00 0.01 0.01 0.01 0.01 0.01 0.01 0.01 0.01 0.00 0.00 0.00 0.01 0.01 0.01 0.01 0.01 0.01 0.01 0.01 0.02 0.02 0.02 0.02 0.02 0.02 0.02 0.03 0.03 0.02 0.02 0.03 0.03 0.03 0.03 0.03 0.03 0.03 0.03 0.02
0.00 0.00 0.00 0.00 0.00 0.00 0.00 0.01 0.01 0.01 0.01 0.01 0.01 0.01 0.01 0.01 0.01 0.01 0.01 0.01 0.01 0.01 0.01 0.01 0.02 0.02 0.02 0.02 0.02 0.02 0.02 0.03 0.03 0.03 0.03 0.04 0.03 0.03 0.03 0.03 0.03 0.02 0.02
0.00 0.00 0.00 0.00 0.00 0.00 0.01 0.01 0.01 0.01 0.01 0.01 0.01 0.01 0.01 0.01 0.01 0.01 0.01 0.01 0.01 0.01 0.01 0.01 0.02 0.02 0.02 0.02 0.02 0.02 0.02 0.02 0.03 0.03 0.03 0.03 0.03 0.03 0.03 0.03 0.03 0.03 0.02
0.00 0.00 0.00 0.00 0.00 0.00 0.00 0.00 0.00 0.00 0.00 0.01 0.01 0.01 0.01 0.01 0.01 0.01 0.01 0.01 0.01 0.01 0.01 0.01 0.01 0.01 0.02 0.02 0.02 0.02 0.02 0.02 0.02 0.03 0.03 0.03 0.03 0.03 0.03 0.03 0.03 0.02 0.02
MSLP
1027.59 1027.81 1028.06 1028.34 1028.64 1028.98 1029.36 1029.79 1030.26 1030.78 1031.29 1031.79 1032.21 1032.52 1032.70 1032.74 1032.64 1032.43 1032.16 1031.87 1031.61 1031.39 1031.23 1031.11 1030.99 1030.83 1030.57 1030.18 1029.64 1028.94 1028.10 1027.18 1026.20 1025.22 1024.28 1023.40 1022.58 1021.81 1021.05 1020.29 1019.49 1018.65 1017.77
1027.15 1027.40 1027.68 1027.98 1028.32 1028.69 1029.10 1029.55 1030.04 1030.54 1031.04 1031.50 1031.89 1032.17 1032.32 1032.34 1032.24 1032.04 1031.79 1031.53 1031.29 1031.10 1030.95 1030.83 1030.71 1030.54 1030.28 1029.88 1029.34 1028.65 1027.84 1026.93 1025.98 1025.02 1024.08 1023.19 1022.32 1021.48 1020.64 1019.78 1018.87 1017.92 1016.93
1026.76 1027.03 1027.34 1027.68 1028.06 1028.47 1028.91 1029.37 1029.86 1030.36 1030.83 1031.26 1031.61 1031.86 1031.98 1031.99 1031.89 1031.70 1031.47 1031.23 1031.01 1030.83 1030.68 1030.55 1030.41 1030.21 1029.92 1029.51 1028.97 1028.29 1027.51 1026.64 1025.73 1024.81 1023.90 1023.00 1022.12 1021.24 1020.33 1019.39 1018.39 1017.34 1016.26
1026.36 1026.66 1027.00 1027.38 1027.80 1028.24 1028.71 1029.20 1029.69 1030.18 1030.64 1031.04 1031.36 1031.59 1031.69 1031.69 1031.60 1031.43 1031.22 1031.00 1030.79 1030.60 1030.44 1030.29 1030.11 1029.87 1029.55 1029.12 1028.58 1027.92 1027.17 1026.35 1025.49 1024.62 1023.74 1022.87 1021.99 1021.08 1020.13 1019.12 1018.05 1016.93 1015.78
1025.93 1026.25 1026.63 1027.04 1027.49 1027.96 1028.45 1028.96 1029.47 1029.96 1030.41 1030.81 1031.12 1031.33 1031.44 1031.44 1031.36 1031.21 1031.02 1030.82 1030.61 1030.42 1030.24 1030.05 1029.83 1029.56 1029.21 1028.76 1028.22 1027.59 1026.87 1026.11 1025.30 1024.48 1023.64 1022.78 1021.91 1020.98 1020.01 1018.96 1017.85 1016.68 1015.47
1025.47 1025.81 1026.21 1026.64 1027.10 1027.60 1028.12 1028.64 1029.16 1029.67 1030.13 1030.53 1030.84 1031.07 1031.19 1031.21 1031.15 1031.02 1030.85 1030.65 1030.45 1030.25 1030.04 1029.82 1029.57 1029.27 1028.90 1028.45 1027.92 1027.31 1026.64 1025.92 1025.16 1024.38 1023.57 1022.74 1021.86 1020.93 1019.93 1018.86 1017.72 1016.52 1015.28
1025.01 1025.36 1025.75 1026.19 1026.66 1027.17 1027.69 1028.23 1028.77 1029.29 1029.76 1030.18 1030.52 1030.76 1030.90 1030.95 1030.91 1030.81 1030.65 1030.46 1030.26 1030.04 1029.82 1029.57 1029.30 1028.99 1028.62 1028.18 1027.67 1027.10 1026.47 1025.79 1025.07 1024.32 1023.53 1022.70 1021.82 1020.87 1019.86 1018.77 1017.61 1016.39 1015.13
1024.57 1024.91 1025.30 1025.73 1026.19 1026.69 1027.21 1027.76 1028.30 1028.83 1029.32 1029.76 1030.12 1030.38 1030.55 1030.62 1030.61 1030.52 1030.37 1030.18 1029.98 1029.75 1029.52 1029.27 1028.99 1028.68 1028.32 1027.91 1027.44 1026.91 1026.33 1025.69 1025.00 1024.26 1023.48 1022.64 1021.73 1020.77 1019.73 1018.63 1017.46 1016.23 1014.96
1024.16 1024.51 1024.88 1025.29 1025.73 1026.21 1026.72 1027.25 1027.79 1028.32 1028.82 1029.27 1029.64 1029.93 1030.11 1030.20 1030.20 1030.12 1029.98 1029.80 1029.59 1029.36 1029.12 1028.88 1028.61 1028.32 1028.00 1027.63 1027.21 1026.73 1026.18 1025.58 1024.91 1024.18 1023.38 1022.52 1021.59 1020.59 1019.53 1018.41 1017.23 1016.00 1014.74
1023.81 1024.15 1024.51 1024.89 1025.31 1025.75 1026.24 1026.74 1027.26 1027.78 1028.28 1028.73 1029.10 1029.39 1029.59 1029.68 1029.69 1029.62 1029.48 1029.30 1029.09 1028.87 1028.64 1028.41 1028.17 1027.92 1027.64 1027.32 1026.95 1026.51 1026.01 1025.43 1024.78 1024.04 1023.23 1022.34 1021.37 1020.34 1019.26 1018.12 1016.93 1015.70 1014.44
1023.47 1023.82 1024.17 1024.53 1024.92 1025.33 1025.78 1026.25 1026.75 1027.24 1027.71 1028.14 1028.50 1028.79 1028.98 1029.08 1029.09 1029.02 1028.89 1028.71 1028.52 1028.31 1028.10 1027.90 1027.70 1027.49 1027.25 1026.98 1026.66 1026.27 1025.80 1025.24 1024.59 1023.84 1023.01 1022.09 1021.10 1020.04 1018.93 1017.77 1016.57 1015.34 1014.09
1023.13 1023.48 1023.83 1024.18 1024.54 1024.93 1025.34 1025.77 1026.22 1026.67 1027.11 1027.51 1027.86 1028.13 1028.31 1028.41 1028.42 1028.37 1028.25 1028.10 1027.93 1027.75 1027.58 1027.41 1027.25 1027.08 1026.89 1026.66 1026.37 1026.01 1025.56 1025.01 1024.36 1023.60 1022.75 1021.81 1020.79 1019.71 1018.58 1017.41 1016.20 1014.97 1013.71
1022.73 1023.10 1023.45 1023.79 1024.13 1024.49 1024.86 1025.26 1025.66 1026.07 1026.47 1026.84 1027.15 1027.41 1027.59 1027.69 1027.72 1027.69 1027.61 1027.50 1027.37 1027.24 1027.12 1026.99 1026.87 1026.74 1026.58 1026.38 1026.11 1025.76 1025.32 1024.77 1024.11 1023.35 1022.48 1021.52 1020.49 1019.40 1018.26 1017.08 1015.87 1014.62 1013.35
1022.23 1022.61 1022.97 1023.31 1023.64 1023.98 1024.32 1024.68 1025.04 1025.40 1025.76 1026.09 1026.38 1026.63 1026.81 1026.94 1027.01 1027.03 1027.01 1026.96 1026.90 1026.83 1026.76 1026.69 1026.61 1026.50 1026.36 1026.17 1025.90 1025.54 1025.09 1024.53 1023.86 1023.09 1022.22 1021.27 1020.24 1019.15 1018.01 1016.82 1015.60 1014.34 1013.05
1021.63 1022.01 1022.37 1022.71 1023.03 1023.35 1023.67 1024.00 1024.32 1024.65 1024.97 1025.27 1025.54 1025.79 1025.99 1026.15 1026.28 1026.37 1026.43 1026.47 1026.50 1026.51 1026.51 1026.50 1026.45 1026.37 1026.23 1026.03 1025.74 1025.36 1024.88 1024.30 1023.62 1022.85 1021.99 1021.05 1020.04 1018.97 1017.85 1016.67 1015.44 1014.16 1012.83
1020.92 1021.29 1021.65 1021.99 1022.31 1022.61 1022.91 1023.21 1023.50 1023.79 1024.08 1024.36 1024.63 1024.88 1025.11 1025.33 1025.53 1025.71 1025.87 1026.02 1026.15 1026.26 1026.33 1026.37 1026.36 1026.29 1026.15 1025.92 1025.60 1025.19 1024.68 1024.08 1023.39 1022.63 1021.79 1020.89 1019.92 1018.88 1017.78 1016.62 1015.39 1014.09 1012.73
1020.16 1020.52 1020.86 1021.19 1021.50 1021.80 1022.08 1022.35 1022.61 1022.87 1023.13 1023.38 1023.65 1023.92 1024.19 1024.46 1024.74 1025.02 1025.29 1025.55 1025.79 1026.00 1026.15 1026.25 1026.27 1026.21 1026.05 1025.79 1025.44 1024.99 1024.45 1023.84 1023.16 1022.41 1021.61 1020.76 1019.84 1018.86 1017.81 1016.68 1015.46 1014.14 1012.74
1019.42 1019.75 1020.08 1020.39 1020.69 1020.96 1021.22 1021.46 1021.69 1021.91 1022.14 1022.38 1022.63 1022.91 1023.22 1023.55 1023.90 1024.28 1024.65 1025.02 1025.36 1025.66 1025.89 1026.04 1026.09 1026.03 1025.86 1025.58 1025.19 1024.71 1024.16 1023.54 1022.88 1022.17 1021.43 1020.64 1019.80 1018.89 1017.91 1016.82 1015.62 1014.30 1012.88
1018.76 1019.06 1019.37 1019.66 1019.94 1020.18 1020.41 1020.61 1020.80 1020.98 1021.17 1021.38 1021.62 1021.90 1022.22 1022.60 1023.01 1023.46 1023.92 1024.39 1024.81 1025.19 1025.48 1025.68 1025.75 1025.70 1025.52 1025.22 1024.82 1024.33 1023.77 1023.17 1022.54 1021.89 1021.21 1020.51 1019.76 1018.94 1018.04 1017.01 1015.86 1014.56 1013.13
1018.25 1018.52 1018.80 1019.06 1019.30 1019.52 1019.70 1019.85 1019.99 1020.12 1020.26 1020.42 1020.63 1020.89 1021.22 1021.61 1022.07 1022.57 1023.09 1023.62 1024.11 1024.55 1024.89 1025.12 1025.22 1025.18 1025.00 1024.70 1024.29 1023.81 1023.27 1022.70 1022.13 1021.54 1020.95 1020.35 1019.70 1018.98 1018.17 1017.22 1016.13 1014.89 1013.48
1017.91 1018.15 1018.39 1018.62 1018.82 1018.98 1019.11 1019.20 1019.27 1019.34 1019.41 1019.52 1019.68 1019.91 1020.22 1020.61 1021.08 1021.60 1022.17 1022.73 1023.27 1023.74 1024.11 1024.37 1024.49 1024.46 1024.30 1024.01 1023.62 1023.16 1022.66 1022.14 1021.63 1021.13 1020.63 1020.12 1019.58 1018.97 1018.26 1017.42 1016.41 1015.24 1013.89
1017.74 1017.94 1018.14 1018.32 1018.46 1018.56 1018.62 1018.64 1018.63 1018.62 1018.62 1018.66 1018.77 1018.95 1019.23 1019.60 1020.06 1020.59 1021.16 1021.75 1022.30 1022.79 1023.19 1023.46 1023.59 1023.59 1023.44 1023.18 1022.83 1022.41 1021.96 1021.51 1021.07 1020.65 1020.24 1019.84 1019.40 1018.90 1018.29 1017.55 1016.65 1015.57 1014.32
1017.70 1017.86 1018.00 1018.11 1018.18 1018.20 1018.18 1018.11 1018.02 1017.92 1017.84 1017.82 1017.86 1018.00 1018.24 1018.59 1019.03 1019.55 1020.11 1020.70 1021.25 1021.75 1022.16 1022.44 1022.59 1022.61 1022.50 1022.27 1021.96 1021.60 1021.21 1020.82 1020.46 1020.12 1019.79 1019.48 1019.13 1018.73 1018.23 1017.59 1016.81 1015.85 1014.71
1017.73 1017.82 1017.89 1017.92 1017.90 1017.83 1017.70 1017.54 1017.36 1017.18 1017.04 1016.95 1016.94 1017.04 1017.25 1017.57 1018.00 1018.50 1019.06 1019.63 1020.18 1020.68 1021.09 1021.38 1021.55 1021.59 1021.51 1021.33 1021.07 1020.76 1020.44 1020.12 1019.82 1019.54 1019.29 1019.05 1018.78 1018.46 1018.05 1017.53 1016.86 1016.03 1015.03
1017.74 1017.75 1017.72 1017.66 1017.54 1017.36 1017.14 1016.88 1016.62 1016.37 1016.16 1016.03 1015.99 1016.06 1016.26 1016.57 1016.98 1017.47 1018.02 1018.59 1019.13 1019.62 1020.03 1020.33 1020.52 1020.59 1020.54 1020.40 1020.19 1019.94 1019.67 1019.41 1019.17 1018.95 1018.75 1018.56 1018.36 1018.11 1017.79 1017.36 1016.80 1016.11 1015.26
1017.68 1017.59 1017.46 1017.28 1017.05 1016.77 1016.45 1016.12 1015.78 1015.48 1015.23 1015.07 1015.02 1015.09 1015.28 1015.59 1016.01 1016.50 1017.04 1017.60 1018.14 1018.62 1019.03 1019.33 1019.53 1019.62 1019.61 1019.51 1019.35 1019.15 1018.93 1018.72 1018.52 1018.35 1018.19 1018.05 1017.89 1017.70 1017.44 1017.10 1016.66 1016.10 1015.40
Thickness
5486 5484 5482 5480 5477 5475 5473 5471 5468 5465 5462 5458 5454 5450 5447 5443 5438 5434 5430 5426 5422 5417 5413 5408 5404 5400 5396 5392 5387 5383 5379 5374 5374 5376 5370 5364 5359 5355 5351 5346 5342 5338 5336
5480 5477 5475 5473 5470 5468 5465 5463 5460 5457 5454 5450 5446 5442 5438 5433 5429 5425 5420 5416 5411 5407 5402 5398 5394 5390 5386 5381 5377 5373 5368 5363 5359 5360 5358 5352 5347 5341 5337 5333 5328 5325 5321
5473 5471 5469 5466 5464 5461 5458 5455 5452 5450 5447 5442 5438 5434 5430 5425 5420 5415 5410 5406 5401 5397 5392 5388 5384 5380 5376 5371 5367 5362 5358 5353 5348 5345 5344 5340 5335 5329 5324 5320 5316 5313 5309
5468 5465 5462 5459 5456 5453 5450 5448 5445 5441 5438 5434 5429 5425 5420 5416 5411 5406 5401 5396 5391 5387 5383 5378 5374 5370 5366 5361 5357 5352 5347 5342 5337 5333 5331 5328 5323 5317 5311 5308 5306 5302 5298
5462 5459 5456 5452 5449 5446 5443 5440 5437 5433 5429 5425 5420 5415 5410 5406 5401 5397 5392 5387 5383 5378 5374 5369 5364 5359 5355 5350 5345 5341 5335 5330 5326 5321 5319 5315 5311 5305 5299 5295 5291 5290 5287
5456 5454 5450 5446 5442 5439 5435 5431 5428 5425 5420 5416 5412 5407 5403 5397 5392 5387 5383 5378 5374 5370 5366 5361 5356 5350 5345 5340 5334 5328 5323 5317 5313 5309 5306 5301 5298 5292 5286 5280 5276 5275 5276
5450 5447 5443 5439 5436 5432 5428 5424 5421 5416 5412 5407 5403 5398 5394 5390 5384 5379 5374 5369 5366 5362 5357 5352 5347 5342 5335 5331 5325 5319 5313 5306 5300 5295 5292 5288 5284 5279 5273 5269 5264 5260 5259
5444 5440 5436 5432 5428 5424 5420 5417 5413 5408 5403 5399 5394 5390 5386 5381 5376 5371 5366 5361 5357 5353 5347 5342 5338 5332 5326 5320 5315 5310 5305 5299 5292 5286 5281 5276 5270 5264 5259 5255 5251 5248 5247
5437 5433 5429 5424 5420 5416 5412 5408 5404 5400 5395 5391 5386 5382 5378 5373 5368 5363 5357 5353 5349 5345 5339 5333 5327 5322 5316 5309 5304 5300 5296 5291 5283 5276 5270 5264 5259 5253 5247 5242 5239 5236 5237
5430 5426 5421 5417 5413 5409 5405 5400 5395 5391 5387 5382 5377 5372 5368 5364 5360 5354 5349 5345 5341 5336 5331 5324 5317 5311 5305 5298 5293 5290 5286 5281 5274 5268 5262 5256 5250 5245 5238 5232 5227 5223 5221
5422 5417 5413 5409 5405 5400 5396 5391 5386 5381 5377 5372 5367 5363 5359 5355 5351 5346 5340 5336 5331 5326 5321 5316 5309 5302 5296 5290 5284 5279 5275 5269 5263 5257 5253 5248 5243 5237 5231 5224 5217 5212 5209
5413 5409 5404 5400 5395 5391 5386 5381 5376 5371 5367 5363 5358 5354 5350 5345 5341 5337 5332 5326 5321 5315 5311 5305 5299 5293 5287 5281 5275 5269 5263 5256 5251 5246 5242 5239 5234 5229 5223 5216 5210 5204 5199
5404 5399 5395 5390 5386 5381 5376 5372 5367 5362 5358 5354 5350 5346 5342 5337 5332 5327 5322 5316 5310 5304 5300 5294 5288 5282 5277 5271 5265 5259 5252 5246 5240 5236 5233 5229 5223 5218 5212 5208 5203 5197 5193
5395 5391 5386 5381 5377 5371 5366 5362 5357 5353 5349 5345 5341 5337 5332 5328 5323 5317 5312 5306 5300 5294 5288 5282 5276 5271 5266 5260 5254 5248 5242 5236 5231 5227 5223 5218 5213 5208 5203 5198 5194 5189 5186
5387 5382 5377 5372 5367 5362 5357 5353 5348 5345 5340 5336 5332 5327 5322 5319 5314 5307 5300 5295 5289 5282 5276 5271 5266 5262 5257 5252 5245 5239 5233 5228 5222 5217 5213 5208 5204 5199 5194 5188 5183 5179 5176
5379 5374 5368 5363 5358 5353 5348 5343 5338 5334 5329 5325 5320 5315 5311 5307 5301 5295 5289 5283 5277 5270 5263 5259 5256 5251 5246 5241 5236 5231 5225 5220 5214 5208 5203 5199 5194 5189 5185 5180 5174 5170 5168
5371 5366 5360 5354 5349 5344 5339 5335 5331 5326 5320 5315 5310 5304 5300 5295 5289 5284 5278 5272 5266 5259 5252 5248 5244 5240 5235 5230 5226 5221 5217 5211 5204 5199 5194 5189 5184 5179 5174 5170 5166 5162 5159
5362 5357 5351 5346 5340 5334 5329 5324 5320 5315 5311 5306 5300 5294 5288 5283 5278 5272 5266 5260 5255 5248 5243 5238 5234 5229 5224 5219 5215 5210 5206 5200 5194 5189 5184 5179 5174 5169 5165 5161 5157 5153 5150
5353 5348 5342 5336 5330 5324 5318 5313 5308 5302 5298 5294 5289 5284 5277 5272 5267 5261 5254 5248 5244 5240 5234 5228 5223 5218 5213 5208 5203 5199 5194 5189 5184 5178 5173 5169 5164 5160 5156 5152 5148 5145 5141
5343 5338 5331 5326 5320 5313 5307 5302 5296 5291 5286 5282 5277 5273 5266 5260 5256 5251 5244 5239 5234 5229 5224 5219 5213 5208 5203 5197 5192 5188 5183 5178 5173 5168 5163 5159 5155 5151 5148 5144 5141 5138 5135
5334 5328 5320 5314 5309 5303 5297 5291 5286 5280 5276 5271 5267 5261 5255 5249 5245 5240 5234 5229 5224 5219 5214 5208 5203 5198 5193 5188 5182 5178 5173 5168 5163 5158 5153 5149 5145 5142 5139 5137 5134 5131 5128
5324 5318 5311 5304 5298 5292 5286 5281 5275 5270 5265 5260 5256 5249 5244 5238 5234 5229 5224 5219 5214 5208 5203 5197 5192 5188 5182 5177 5173 5169 5164 5160 5155 5150 5146 5142 5138 5135 5132 5129 5126 5124 5122
5313 5307 5300 5294 5287 5281 5275 5270 5264 5259 5254 5249 5244 5238 5233 5228 5223 5219 5214 5209 5203 5198 5192 5187 5183 5179 5174 5169 5164 5159 5156 5152 5148 5143 5138 5135 5131 5128 5125 5122 5120 5117 5117
5302 5296 5290 5284 5277 5272 5266 5260 5254 5249 5244 5238 5233 5227 5222 5217 5212 5207 5202 5197 5192 5187 5182 5178 5173 5170 5165 5160 5156 5151 5148 5144 5140 5136 5132 5128 5125 5122 5119 5116 5115 5113 5112
5291 5285 5279 5273 5267 5261 5255 5249 5244 5238 5232 5227 5222 5217 5212 5207 5202 5197 5192 5187 5182 5178 5173 5168 5165 5161 5157 5152 5148 5144 5141 5138 5134 5130 5126 5123 5120 5116 5113 5111 5110 5108 5107
5279 5274 5268 5262 5256 5250 5244 5239 5233 5227 5221 5216 5211 5206 5200 5195 5190 5185 5181 5176 5171 5167 5163 5159 5156 5152 5148 5145 5142 5138 5135 5132 5128 5125 5120 5118 5115 5112 5109 5107 5106 5105 5104